{"data":{"norad_id":52311,"epoch":"2026-05-25T03:16:27.086304Z","epoch_age_seconds":53426,"freshness":"FRESH","line1":"1 52311U 22041BC  26145.13642461  .00003641  00000+0  24669-3 0  9999","line2":"2 52311  53.2133 105.9357 0001467  77.1279 282.9877 15.08844464227404","mean_motion":15.08844464,"eccentricity":0.0001467,"inclination_deg":53.2133,"raan_deg":105.9357,"arg_perigee_deg":77.1279,"mean_anomaly_deg":282.9877,"bstar":0.00024669,"rev_number":22740,"period_min":95.437272320469,"perigee_km":538.7148932842,"apogee_km":540.74459538699,"semimajor_km":6917.8667443356,"source":"CELESTRAK","updated_at":"2026-05-25T13:38:17.111312Z"}}